sat.trackr.live / text

‹ back to catalog

STARLINK-36780

NORAD 67866 · 2026-034S

PAYLOAD ACTIVE UNKNOWN

§ Identity

Operator
Country
US
Launch date
2026-02-20
Launch site
AFETR
Launch vehicle
Mass (kg)
RCS (m²)

Purposes: comms

External: N2YO · Heavens-Above · Gunter

§ Orbital elements

Epoch: 2026-09-19T21:42:10.133280Z

Period
93.85 min
Inclination
53.1616°
Eccentricity
0.0001252
Mean motion
15.34413631 rev/d
Perigee alt
461.8 km
Apogee alt
463.5 km
Semi-major
6,840.8 km
B*
5.2682e-4
RAAN
20.5185°
Arg perigee
90.9996°
Mean anomaly
269.1150°
Rev number
3,379

§ Raw data

STARLINK-367801 67866U 26034S   26262.90428395  .00017472  00000+0  52682-3 0  99922 67866  53.1616  20.5185 0001252  90.9996 269.1150 15.34413631 33797

JSON: /api/v1/satellites/67866 · /tle

For live sub-satellite position, see the globe view (requires WebGL).

§ Visibility from observer

Set your observer location to see the next 7 days of passes ≥ 10°. The values pass through the URL so the page stays shareable.

No JS? Fill the form by hand. The geolocation button needs JavaScript.